ASA42 PAKT-PASI

Flight info

Callsign ASA42
Flight time 0h 39m
Altitude 22000
Route UDENE3 FLIPS
Aircraft B38M/M-SDE1FGHILORVWXY/HB1

Departure

Time 2026-04-25 20:58
Airport Ketchikan International Airport (PAKT)

Arrival

Time 2026-04-25 21:38
Airport Sitka Rocky Gutierrez Airport (PASI)
Time Latitude Longitude Altitude Speed Heading
2026-04-25 20:44 55.35659 -131.71034 82 ft 0 kts 45°
2026-04-25 20:51 55.35656 -131.71040 82 ft 2 kts 45°
2026-04-25 20:51 55.35643 -131.71065 80 ft 3 kts 47°
2026-04-25 20:51 55.35630 -131.71092 77 ft 3 kts 56°
2026-04-25 20:51 55.35620 -131.71122 80 ft 3 kts 67°
2026-04-25 20:52 55.35614 -131.71156 80 ft 3 kts 81°
2026-04-25 20:52 55.35613 -131.71175 80 ft 2 kts 89°
2026-04-25 20:52 55.35612 -131.71179 80 ft 2 kts 89°
2026-04-25 20:54 55.35610 -131.71164 80 ft 4 kts 111°
2026-04-25 20:54 55.35570 -131.71084 81 ft 15 kts 135°
2026-04-25 20:55 55.35468 -131.70906 80 ft 27 kts 136°
2026-04-25 20:55 55.35311 -131.70639 92 ft 34 kts 135°
2026-04-25 20:55 55.35127 -131.70339 128 ft 38 kts 137°
2026-04-25 20:55 55.34939 -131.70044 134 ft 11 kts 148°
2026-04-25 20:56 55.34878 -131.70043 134 ft 10 kts 207°
2026-04-25 20:56 55.34807 -131.70072 133 ft 13 kts 160°
2026-04-25 20:56 55.34722 -131.69950 132 ft 19 kts 144°
2026-04-25 20:56 55.34681 -131.69873 132 ft 4 kts 64°
2026-04-25 20:57 55.34688 -131.69866 132 ft 0 kts
2026-04-25 20:57 55.34692 -131.69873 132 ft 2 kts 314°
2026-04-25 20:57 55.34708 -131.69920 132 ft 7 kts 310°
2026-04-25 20:57 55.34759 -131.70005 132 ft 19 kts 315°
2026-04-25 20:58 55.35068 -131.70537 131 ft 104 kts 315°
2026-04-25 20:58 55.35744 -131.71697 304 ft 154 kts 316°
2026-04-25 20:58 55.36523 -131.73134 1110 ft 169 kts 312°
2026-04-25 20:58 55.37363 -131.74730 1974 ft 183 kts 312°
2026-04-25 20:59 55.38263 -131.76399 2629 ft 201 kts 315°
2026-04-25 20:59 55.39364 -131.78289 3095 ft 237 kts 319°
2026-04-25 20:59 55.40575 -131.80262 4176 ft 238 kts 318°
2026-04-25 20:59 55.41807 -131.82322 5014 ft 252 kts 317°
2026-04-25 21:00 55.43100 -131.84502 5883 ft 259 kts 317°
2026-04-25 21:00 55.43539 -131.85248 6266 ft 259 kts 317°
2026-04-25 21:00 55.47070 -131.91284 8800 ft 271 kts 314°
2026-04-25 21:01 55.48116 -131.94077 9565 ft 279 kts 294°
2026-04-25 21:01 55.48848 -131.97268 9691 ft 281 kts 293°
2026-04-25 21:01 55.49579 -132.00479 10244 ft 283 kts 292°
2026-04-25 21:01 55.50326 -132.03799 10792 ft 301 kts 292°
2026-04-25 21:02 55.51119 -132.07334 11283 ft 317 kts 292°
2026-04-25 21:02 55.51940 -132.11016 11939 ft 326 kts 291°
2026-04-25 21:02 55.52774 -132.14767 12787 ft 331 kts 291°
2026-04-25 21:02 55.53620 -132.18577 13633 ft 335 kts 291°
2026-04-25 21:03 55.54474 -132.22432 14384 ft 341 kts 291°
2026-04-25 21:03 55.55343 -132.26357 15110 ft 345 kts 290°
2026-04-25 21:03 55.56219 -132.30329 15840 ft 349 kts 290°
2026-04-25 21:03 55.57106 -132.34352 16596 ft 354 kts 290°
2026-04-25 21:04 55.58002 -132.38428 17304 ft 358 kts 290°
2026-04-25 21:04 55.58906 -132.42548 18013 ft 361 kts 289°
2026-04-25 21:04 55.59818 -132.46712 18680 ft 365 kts 289°
2026-04-25 21:04 55.60741 -132.50932 19264 ft 370 kts 289°
2026-04-25 21:05 55.61670 -132.55192 19869 ft 373 kts 289°
2026-04-25 21:05 55.62595 -132.59438 20446 ft 377 kts 289°
2026-04-25 21:05 55.63539 -132.63782 21023 ft 380 kts 289°
2026-04-25 21:05 55.64491 -132.68179 21604 ft 384 kts 289°
2026-04-25 21:06 55.65454 -132.72622 22062 ft 390 kts 289°
2026-04-25 21:06 55.66421 -132.77112 22176 ft 389 kts 289°
2026-04-25 21:06 55.67384 -132.81579 22197 ft 388 kts 289°
2026-04-25 21:06 55.67709 -132.83087 22193 ft 388 kts 289°
2026-04-25 21:07 55.69492 -132.90372 22172 ft 390 kts 302°
2026-04-25 21:07 55.71182 -132.94145 22202 ft 392 kts 306°
2026-04-25 21:07 55.72896 -132.97911 22179 ft 392 kts 307°
2026-04-25 21:07 55.74616 -133.01659 22204 ft 392 kts 307°
2026-04-25 21:08 55.76345 -133.05410 22193 ft 392 kts 307°
2026-04-25 21:08 55.78071 -133.09152 22190 ft 392 kts 307°
2026-04-25 21:08 55.79237 -133.11685 22188 ft 392 kts 307°
2026-04-25 21:08 55.80942 -133.15388 22197 ft 392 kts 307°
2026-04-25 21:09 55.84389 -133.22895 22197 ft 392 kts 307°
2026-04-25 21:09 55.86112 -133.26651 22198 ft 392 kts 307°
2026-04-25 21:09 55.87833 -133.30413 22210 ft 392 kts 306°
2026-04-25 21:10 55.89552 -133.34177 22206 ft 392 kts 306°
2026-04-25 21:10 55.91269 -133.37939 22199 ft 391 kts 306°
2026-04-25 21:10 55.92986 -133.41709 22201 ft 391 kts 306°
2026-04-25 21:10 55.94700 -133.45480 22202 ft 391 kts 306°
2026-04-25 21:11 55.96415 -133.49257 22212 ft 391 kts 306°
2026-04-25 21:11 55.98125 -133.53030 22201 ft 391 kts 306°
2026-04-25 21:11 55.99837 -133.56812 22204 ft 391 kts 306°
2026-04-25 21:11 56.01546 -133.60596 22204 ft 391 kts 306°
2026-04-25 21:12 56.03256 -133.64385 22207 ft 391 kts 306°
2026-04-25 21:12 56.04964 -133.68176 22214 ft 391 kts 306°
2026-04-25 21:12 56.06655 -133.71937 22116 ft 383 kts 306°
2026-04-25 21:12 56.07754 -133.74382 22008 ft 377 kts 306°
2026-04-25 21:13 56.09931 -133.79236 21528 ft 372 kts 306°
2026-04-25 21:13 56.11541 -133.82831 21165 ft 368 kts 306°
2026-04-25 21:13 56.13133 -133.86394 20798 ft 365 kts 306°
2026-04-25 21:13 56.14714 -133.89934 20435 ft 362 kts 306°
2026-04-25 21:14 56.16279 -133.93445 20074 ft 359 kts 306°
2026-04-25 21:14 56.17834 -133.96938 19726 ft 357 kts 306°
2026-04-25 21:14 56.19375 -134.00407 19364 ft 354 kts 306°
2026-04-25 21:14 56.20908 -134.03860 19012 ft 352 kts 306°
2026-04-25 21:15 56.22428 -134.07291 18652 ft 350 kts 306°
2026-04-25 21:15 56.23941 -134.10709 18282 ft 348 kts 306°
2026-04-25 21:15 56.25441 -134.14103 17901 ft 345 kts 306°
2026-04-25 21:15 56.26927 -134.17470 17542 ft 341 kts 306°
2026-04-25 21:16 56.28396 -134.20803 17207 ft 338 kts 306°
2026-04-25 21:16 56.29831 -134.24065 16859 ft 335 kts 306°
2026-04-25 21:16 56.31281 -134.27363 16374 ft 337 kts 306°
2026-04-25 21:16 56.32732 -134.30667 15971 ft 336 kts 306°
2026-04-25 21:17 56.34175 -134.33961 15622 ft 333 kts 306°
2026-04-25 21:17 56.35606 -134.37229 15262 ft 331 kts 306°
2026-04-25 21:17 56.37022 -134.40470 14923 ft 328 kts 306°
2026-04-25 21:17 56.38428 -134.43690 14586 ft 325 kts 306°
2026-04-25 21:18 56.39823 -134.46891 14262 ft 323 kts 306°
2026-04-25 21:18 56.41204 -134.50062 13918 ft 320 kts 306°
2026-04-25 21:18 56.42575 -134.53214 13551 ft 318 kts 306°
2026-04-25 21:18 56.43932 -134.56339 13209 ft 314 kts 306°
2026-04-25 21:19 56.45273 -134.59432 12886 ft 311 kts 306°
2026-04-25 21:19 56.46599 -134.62497 12566 ft 308 kts 306°
2026-04-25 21:19 56.47912 -134.65531 12254 ft 305 kts 306°
2026-04-25 21:19 56.49212 -134.68538 11926 ft 302 kts 306°
2026-04-25 21:20 56.50495 -134.71512 11624 ft 299 kts 306°
2026-04-25 21:20 56.51341 -134.73468 11418 ft 297 kts 306°
2026-04-25 21:20 56.53030 -134.77391 11003 ft 294 kts 306°
2026-04-25 21:20 56.54281 -134.80297 10712 ft 291 kts 306°
2026-04-25 21:21 56.55525 -134.83196 10368 ft 291 kts 306°
2026-04-25 21:21 56.56751 -134.86115 10060 ft 289 kts 305°
2026-04-25 21:21 56.57936 -134.88976 9987 ft 278 kts 304°
2026-04-25 21:21 56.59100 -134.91736 9740 ft 274 kts 307°
2026-04-25 21:22 56.60279 -134.94470 9366 ft 275 kts 306°
2026-04-25 21:22 56.61431 -134.97228 9062 ft 273 kts 306°
2026-04-25 21:22 56.62587 -134.99935 8793 ft 270 kts 307°
2026-04-25 21:22 56.63748 -135.02613 8464 ft 269 kts 307°
2026-04-25 21:23 56.64911 -135.05264 8173 ft 267 kts 307°
2026-04-25 21:23 56.66040 -135.07890 7991 ft 260 kts 306°
2026-04-25 21:23 56.67133 -135.10464 7802 ft 256 kts 306°
2026-04-25 21:23 56.68227 -135.13060 7479 ft 261 kts 306°
2026-04-25 21:24 56.69338 -135.15705 7154 ft 265 kts 306°
2026-04-25 21:24 56.70459 -135.18384 6856 ft 266 kts 306°
2026-04-25 21:24 56.71573 -135.21071 6577 ft 266 kts 306°
2026-04-25 21:24 56.72668 -135.23748 6449 ft 260 kts 307°
2026-04-25 21:25 56.73779 -135.26328 6155 ft 259 kts 308°
2026-04-25 21:25 56.74910 -135.28879 5878 ft 257 kts 309°
2026-04-25 21:25 56.76074 -135.31264 5741 ft 249 kts 319°
2026-04-25 21:25 56.77579 -135.32770 5450 ft 248 kts 342°
2026-04-25 21:26 56.79237 -135.33519 5272 ft 241 kts 346°
2026-04-25 21:26 56.80864 -135.34166 5037 ft 239 kts 347°
2026-04-25 21:26 56.82494 -135.34837 4648 ft 241 kts 343°
2026-04-25 21:26 56.84089 -135.35717 4418 ft 238 kts 340°
2026-04-25 21:27 56.85648 -135.36715 4145 ft 238 kts 339°
2026-04-25 21:27 56.87210 -135.37681 4014 ft 232 kts 341°
2026-04-25 21:27 56.88735 -135.38457 3827 ft 227 kts 347°
2026-04-25 21:27 56.90288 -135.38887 3501 ft 223 kts 351°
2026-04-25 21:28 56.91813 -135.39190 3149 ft 218 kts 352°
2026-04-25 21:28 56.93297 -135.39505 2817 ft 212 kts 351°
2026-04-25 21:28 56.94734 -135.39806 2575 ft 198 kts 354°
2026-04-25 21:28 56.96029 -135.39466 2292 ft 191 kts 21°
2026-04-25 21:29 56.97012 -135.37922 1929 ft 182 kts 54°
2026-04-25 21:29 56.97576 -135.36015 1759 ft 159 kts 56°
2026-04-25 21:29 56.98197 -135.34446 1538 ft 150 kts 45°
2026-04-25 21:29 56.98910 -135.33014 1403 ft 152 kts 44°
2026-04-25 21:30 56.99655 -135.31701 1194 ft 143 kts 31°
2026-04-25 21:30 57.00575 -135.31144 941 ft 140 kts 358°
2026-04-25 21:30 57.01518 -135.31422 743 ft 138 kts 340°
2026-04-25 21:30 57.02109 -135.31878 629 ft 135 kts 330°
2026-04-25 21:31 57.03094 -135.33240 352 ft 136 kts 316°
2026-04-25 21:31 57.03762 -135.34448 134 ft 134 kts 314°
2026-04-25 21:31 57.04406 -135.35591 119 ft 128 kts 314°
2026-04-25 21:31 57.05097 -135.36824 711 ft 150 kts 314°
2026-04-25 21:32 57.05874 -135.38289 1444 ft 167 kts 314°
2026-04-25 21:32 57.06722 -135.39922 2240 ft 193 kts 309°
2026-04-25 21:32 57.07279 -135.42261 2225 ft 207 kts 274°
2026-04-25 21:32 57.06947 -135.44759 2230 ft 202 kts 240°
2026-04-25 21:33 57.06020 -135.46661 2358 ft 205 kts 218°
2026-04-25 21:33 57.04640 -135.47631 2496 ft 222 kts 185°
2026-04-25 21:33 57.03109 -135.47166 2559 ft 228 kts 160°
2026-04-25 21:33 57.01692 -135.45830 2553 ft 228 kts 151°
2026-04-25 21:34 57.00334 -135.44507 2564 ft 213 kts 154°
2026-04-25 21:34 56.99090 -135.43344 2596 ft 191 kts 155°
2026-04-25 21:34 56.97945 -135.42335 2441 ft 180 kts 156°
2026-04-25 21:34 56.96882 -135.41147 2334 ft 180 kts 136°
2026-04-25 21:35 56.96378 -135.39099 2234 ft 177 kts 86°
2026-04-25 21:35 56.96809 -135.37146 2021 ft 159 kts 45°
2026-04-25 21:35 56.97531 -135.35648 1816 ft 154 kts 45°
2026-04-25 21:35 56.98219 -135.34196 1545 ft 149 kts 44°
2026-04-25 21:36 56.98927 -135.32863 1407 ft 146 kts 39°
2026-04-25 21:36 56.99733 -135.31752 1210 ft 145 kts 23°
2026-04-25 21:36 57.00681 -135.31300 988 ft 140 kts
2026-04-25 21:36 57.01645 -135.31471 752 ft 139 kts 344°
2026-04-25 21:37 57.02494 -135.32206 531 ft 134 kts 320°
2026-04-25 21:37 57.02954 -135.32980 377 ft 136 kts 314°
2026-04-25 21:37 57.03842 -135.34592 105 ft 134 kts 314°
2026-04-25 21:37 57.04462 -135.35713 29 ft 106 kts 316°
2026-04-25 21:38 57.04829 -135.36374 32 ft 58 kts 315°
2026-04-25 21:38 57.05072 -135.36810 33 ft 40 kts 315°
2026-04-25 21:38 57.05240 -135.37114 35 ft 26 kts 315°
2026-04-25 21:38 57.05347 -135.37254 35 ft 13 kts
2026-04-25 21:39 57.05398 -135.37168 36 ft 9 kts 71°
2026-04-25 21:39 57.05377 -135.37075 38 ft 9 kts 136°
2026-04-25 21:39 57.05323 -135.36979 38 ft 12 kts 135°
2026-04-25 21:39 57.05258 -135.36860 38 ft 13 kts 135°
2026-04-25 21:40 57.05223 -135.36793 37 ft 7 kts 120°
2026-04-25 21:40 57.05226 -135.36686 39 ft 7 kts 76°
2026-04-25 21:40 57.05234 -135.36625 42 ft 3 kts 76°
2026-04-25 21:40 57.05236 -135.36608 43 ft 0 kts 76°